Погода в Ромахове

Россия / Белгородская область     50°22′07″N   38°32′46″E
темп.,
°C
ветер,
м/с
пор.,
м/с
влажн.,
%
обл.,
%
осадки,
мм/ч
давл.,
гПа
погр.,
м
6 мая, чт
чт600:00+9ю3769100 0.0 1016103
03:00+8ююв4970100 0.0 1016152
06:00+8ю3876100 0.0 1016186
09:00+13ю61059100 0.0 1015732
12:00+16ю71050100 0.0 10141697
15:00+17ююз6946100 0.0 10132054
18:00+16ююз3760100 0.0 1012289
21:00+14ю3765100 0.0 1012133
7 мая, пт
пт700:00+11зсз3681100 0.0 1013221
03:00+10з1695100 1.6 1014331
06:00+10ссз3695100 0.5 1015332
09:00+12с3373100 0.5 1016702
12:00+15ссв22521 0.0 10161362
15:00+18ссв114269 0.0 10161723
18:00+17вюв1251100 0.0 1015347
21:00+13вюв3357100 0.0 101538
8 мая, сб
сб800:00+12ююв41075100 0.0 1014214
03:00+12ююв51282100 0.2 1013344
06:00+12ююз61277100 0.0 1012449
09:00+11ю5138396 0.4 1012512
12:00+17ююз81165100 0.0 10101107
15:00+16ююз101378100 0.3 10091000
18:00+12юз61393100 4.3 1010691
21:00+8ссз61093100 7.3 1011599
9 мая, вс
вс900:00+6сз81192100 5.7 1013821
03:00+5ссв4993100 10.0 1013437
06:00+6зсз3694100 0.6 1014362
09:00+7ссз6978100 0.7 1015752
12:00+9ссз7962100 0.0 10161523
15:00+10ссз91064100 0.3 10181642
18:00+8сз6117898 0.2 10201060
21:00+7сз512739 0.3 1021577
10 мая, пн
пн1000:00+4зсз411875 0.0 1022212
03:00+5сз514795 0.0 1022335
06:00+4ссз6137810 0.0 1023377
09:00+9ссз8146299 0.0 10221706
12:00+12ссз111655100 0.0 10202269
15:00+7с91781100 1.1 10201457
18:00+6с91689100 1.3 1019892
21:00+6с81595100 3.2 1018652